Hourly Data Report for October 06, 2016

All times are specified in Local Standard Time (LST). Add 1 hour to adjust for Daylight Saving Time where and when it is observed.

PANGNIRTUNG
NUNAVUT

66°08'36.300" N
65°42'40.500" W
22.60 m
2403049
71826
WXP

Download Data

Hourly Data (October 2016)
Hourly Data Report for October 6, 2016
Temp Definition
°C
Dew Point Temp Definition
°C
Rel Hum Definition
%
Wind Dir Definition
10's deg

Wind Spd Definition
km/h
Visibility Definition
km
Stn Press Definition
kPa
Hmdx Definition


Wind Chill Definition


Weather Definition


TIME
00:00 0.3 -2.6 81 24 2   99.64     LegendNANA
01:00 0.3 -2.7 80 14 5   99.72     LegendNANA
02:00 0.5 -2.7 79 0 1   99.80     LegendNANA
03:00 0.2 -2.2 84 24 5   99.89     LegendNANA
04:00 0.3 -2.4 82 11 3   99.93     LegendNANA
05:00 0.0 -2.5 84 10 1   99.99   0 LegendNANA
06:00 0.3 -2.5 81 23 7   100.04     LegendNANA
07:00 0.9 -2.0 81 33 2   100.09     LegendNANA
08:00 1.1 -1.7 81 6 3   100.14     LegendNANA
09:00 0.6 -1.9 83 24 6   100.18     LegendNANA
10:00 0.1 -1.5 89 25 13   100.19     LegendNANA
11:00 -0.1 -2.0 87 24 12   100.23   -4 LegendNANA
12:00 -0.2 -2.3 86 24 11   100.25   -4 LegendNANA
13:00 -0.4 -2.6 85 24 17   100.30   -5 LegendNANA
14:00 0.5 -3.2 76 22 6   100.35     LegendNANA
15:00 0.1 -4.1 74 19 5   100.40     LegendNANA
16:00 -0.8 -4.8 74 18 9   100.44   -4 LegendNANA
17:00 -0.9 -4.4 77 19 11   100.48   -5 LegendNANA
18:00 -1.0 -4.2 78 20 12   100.52   -5 LegendNANA
19:00 -0.1 -3.5 78 18 10   100.57   -3 LegendNANA
20:00 -0.6 -2.9 84 34 3   100.63   -2 LegendNANA
21:00 -0.2 -3.4 79 24 4   100.66   -1 LegendNANA
22:00 -0.7 -3.7 80 18 5   100.68   -2 LegendNANA
23:00 -0.7 -4.0 78 17 11   100.70   -4 LegendNANA

Notes on Data Quality.

Legend

  • E = Estimated
  • M = Missing
  • NA = Not Available
  • ‡ = Partner data that is not subject to review by the National Climate Archives
Date modified: